Погода в Мстихино

Россия / Калужская область     54°33′31″N   36°07′36″E
темп.,
°C
ветер,
м/с
пор.,
м/с
влажн.,
%
обл.,
%
осадки,
мм/ч
давл.,
гПа
погр.,
м
17 апреля, сб
сб1700:00+10в4792100 1.1 1017182
03:00+8юв259541 1.3 101997
06:00+7в2596100 0.0 1019104
09:00+10всв479098 0.3 1019422
12:00+11всв51085100 0.1 1018851
15:00+10в31090100 7.4 1018799
18:00+9ю119596 6.3 101747
21:00+7вюв3696100 10.3 1019344
18 апреля, вс
вс1800:00+6ююв1395100 1.8 1019177
03:00+5юв2294100 1.8 102044
06:00+5в2395100 0.0 102059
09:00+8в2484100 0.0 1020484
12:00+10в3573100 0.8 10201104
15:00+8в238994 1.6 1021309
18:00+7всв51091100 0.8 1021614
21:00+6всв51192100 0.9 1022593
19 апреля, пн
пн1900:00+6всв51093100 0.1 1022513
03:00+5в51093100 0.1 1022467
06:00+6всв51194100 0.0 1022610
09:00+7всв51090100 0.0 1022735
12:00+7всв61087100 0.0 1022750
15:00+7всв61187100 0.1 1022713
18:00+6всв61189100 0.0 1021855
21:00+6в7138876 0.0 1021669
20 апреля, вт
вт2000:00+5в61387100 0.0 1020700
03:00+5в61382100 0.1 1019657
06:00+5в7138796 0.0 1017666
09:00+5в71586100 0.1 1016653
12:00+5всв81787100 0.1 1013886
15:00+5в101990100 2.8 1008998
18:00+6в122291100 8.7 10031356
21:00+7вюв101990100 11.3 10011075
21 апреля, ср
ср2100:00+8вюв81595100 1.3 999545
03:00+9юв61390100 1.9 998870
06:00+8юв71390100 0.4 998809
09:00+3ююз61297100 1.8 1001711
12:00+5ююз61385100 0.1 10051305
15:00+10ююз71267100 0.2 10071741
18:00+8ююз6127335 0.1 10101219
21:00+6ю513845 0.1 1012531